Location: Gand�
(15.0971°N, 12.6564°W)
Time: 15:20:57
(UTC+00:00)

SL-16 R/B - Pass Details

Date: 07 August 2020
Orbit: 840 x 849 km, 71.0° (Epoch: 19 September)

Event Time Altitude Azimuth Distance (km) Brightness Sun altitude
Rises 03:50:18 0° 350° (N) 3,402 5.6 -36.8°
Reaches altitude 10° 03:52:47 10° 354° (N) 2,466 4.9 -36.3°
Enters shadow 03:54:47 22° 1° (N) 1,754 4.1 -35.9°
